www.pogodaiklimat.ru

Погода и климат >> Архив погоды >> Германия >> Берлин


АРХИВ ПОГОДЫ в Берлине

Время (UTC), дата Ветер
(напр.,м/с)
 
Видим.   Явления Облачность Т
(С)
Тd
(С)
f
(%)
Тe
(С)
Тes
(С)
Комфортность P
(гПа)
Po
(гПа)
Тmin
(С)
Tmax
(С)
R
(мм)
R24
(мм)
S
(см)
19 11.09 Ю 2-4
{4}
н/о н/о +17.8 +7.9 52 +18 +18 тепло 1021.5 1015.7
20 11.09 Ю 2-4
{4}
н/о н/о +17.2 +7.5 53 +18 +18 тепло 1021.8 1016.0
21 11.09 Ю 3-4
{4}
н/о н/о +17.0 +7.7 54 +17 +17 тепло 1021.9 1016.0
22 11.09 Ю 2-4
{5}
н/о н/о +16.3 +7.9 57 +16 +16 тепло 1021.9 1016.0
23 11.09 ЮЗ 2-4
{5}
н/о н/о +16.3 +8.5 60 +16 +16 тепло 1022.3 1016.4
00 12.09 З 3 н/о н/о +16.4 +9.9 65 +16 +16 тепло 1022.9 1017.0
01 12.09 З 4-6
{9}
н/о н/о +15.3 +12.9 86 +14 +14 тепло 1023.5 1017.6
02 12.09 ЮЗ 3-5
{5}
н/о н/о +14.8 +13.8 94 +14 +14 тепло 1023.9 1018.0
03 12.09 З 3-4
{9}
н/о н/о +14.8 +13.8 94 +14 +14 тепло 1024.0 1018.1 0.4
04 12.09 З 3-4
{6}
н/о н/о +15.0 +13.7 92 +14 +14 тепло 1024.4 1018.5
05 12.09 ЮЗ 3-4
{5}
н/о н/о +15.0 +13.7 92 +14 +14 тепло 1025.0 1019.1
06 12.09 Ю 2 н/о н/о +15.0 +13.7 92 +15 +15 тепло 1025.4 1019.5 +14.7 +19.4 0.4
07 12.09 ЮЗ 3-4
{4}
н/о н/о +15.6 +13.8 89 +15 +15 тепло 1026.0 1020.1
08 12.09 З 3-4
{5}
н/о н/о +16.3 +13.9 86 +16 +16 тепло 1026.8 1020.9
09 12.09 ЮЗ 4 н/о н/о +16.9 +13.9 82 +16 +16 тепло 1027.3 1021.4
10 12.09 З 3-5
{7}
н/о н/о +17.5 +13.9 79 +18 +18 по сезону 1027.6 1021.7
11 12.09 ЮЗ 4-6
{6}
н/о н/о +18.9 +14.0 73 +20 +20 тепло 1027.6 1021.8
12 12.09 ЮЗ 4-6
{7}
н/о н/о +20.0 +14.2 69 +22 +22 комфорт 1027.5 1021.7 0.0
13 12.09 З 3-6
{7}
н/о н/о +20.9 +13.6 63 +24 +24 комфорт 1027.4 1021.6
14 12.09 ЮЗ 4-8
{8}
н/о н/о +21.7 +13.1 58 +24 +24 комфорт 1027.0 1021.2
15 12.09 ЮЗ 4-6
{8}
н/о н/о +22.4 +13.4 57 +25 +25 комфорт 1026.8 1021.0
16 12.09 ЮЗ 4-6
{8}
н/о н/о +22.0 +13.0 57 +25 +25 комфорт 1026.6 1020.8
17 12.09 ЮЗ 2-4
{7}
н/о н/о +21.4 +13.7 61 +24 +24 комфорт 1026.6 1020.8
18 12.09 Ю 2 н/о н/о +20.3 +13.7 66 +23 +23 комфорт 1026.7 1020.9 +15.0 +22.7 0.0
19 12.09 Ю 2-4
{4}
н/о н/о +19.4 +13.6 69 +21 +21 комфорт 1026.9 1021.1
20 12.09 ЮЗ 2-3
{4}
н/о н/о +18.6 +13.5 72 +20 +20 тепло 1026.9 1021.1
21 12.09 ЮЗ 3-4
{4}
н/о н/о +18.1 +13.5 74 +18 +18 тепло 1027.0 1021.2
22 12.09 ЮЗ 2-3
{3}
н/о н/о +17.2 +13.4 78 +18 +18 тепло 1027.0 1021.1
23 12.09 ЮЗ 3-4
{4}
н/о н/о +16.7 +13.4 81 +16 +16 тепло 1026.8 1020.9
00 13.09 ЮЗ 3 н/о н/о +16.1 +13.2 83 +16 +16 тепло 1026.6 1020.7
01 13.09 ЮЗ 3-4
{5}
н/о н/о +15.6 +12.7 83 +15 +15 тепло 1026.5 1020.6
02 13.09 ЮЗ 3-4
{5}
н/о н/о +15.6 +12.5 82 +15 +15 тепло 1026.3 1020.4
03 13.09 ЮЗ 3-5
{5}
н/о н/о +15.4 +12.3 82 +15 +15 тепло 1026.3 1020.4
04 13.09 ЮЗ 3-5
{5}
н/о н/о +16.1 +12.5 79 +16 +16 тепло 1026.3 1020.4
05 13.09 ЮЗ 3-5
{5}
н/о н/о +16.5 +12.7 78 +16 +16 тепло 1026.4 1020.5
06 13.09 ЮЗ 3 н/о н/о +17.0 +12.8 76 +17 +17 тепло 1026.5 1020.6 +15.4 +20.2
07 13.09 ЮЗ 3-6
{7}
н/о н/о +18.0 +13.1 73 +18 +18 тепло 1026.6 1020.8
08 13.09 З 5-7
{7}
н/о н/о +19.1 +13.5 70 +20 +20 тепло 1026.6 1020.8
09 13.09 З 6 н/о н/о +19.8 +14.2 70 +21 +21 комфорт 1026.8 1021.0
10 13.09 З 5-8
{9}
н/о н/о +20.6 +14.9 70 +23 +23 комфорт 1026.9 1021.1
11 13.09 З 7-11
{11}
н/о н/о +22.3 +15.1 64 +26 +26 жарко 1027.0 1021.2
12 13.09 СЗ 11-14
{14}
н/о н/о +19.1 +13.7 71 +19 +19 тепло 1027.8 1022.0 0.0
13 13.09 СЗ 6-9
{12}
н/о н/о +18.4 +13.2 72 +18 +18 тепло 1029.0 1023.1
14 13.09 СЗ 7-11
{11}
н/о н/о +20.2 +12.2 60 +22 +22 комфорт 1029.0 1023.2
15 13.09 СЗ 8-11
{12}
н/о н/о +19.9 +9.9 52 +21 +21 комфорт 1029.5 1023.7 0.0
16 13.09 СЗ 7-10
{11}
н/о н/о +19.5 +8.8 50 +20 +20 тепло 1029.9 1024.1
17 13.09 С 6-8
{8}
н/о н/о +18.0 +8.0 52 +17 +17 тепло 1030.5 1024.6
18 13.09 С 5 н/о н/о +16.6 +8.2 58 +16 +16 по сезону 1031.2 1025.3 +16.6 +23.0
19 13.09 С 4-6
{7}
н/о н/о +15.5 +7.1 57 +15 +15 тепло 1031.9 1026.0
20 13.09 С 3-4
{5}
н/о н/о +15.0 +6.6 57 +14 +14 по сезону 1032.5 1026.5
21 13.09 С 4-5
{7}
н/о н/о +14.2 +6.3 59 +13 +13 по сезону 1032.9 1026.9
22 13.09 СЗ 2-3
{5}
н/о н/о +13.4 +6.7 64 +13 +13 тепло 1033.3 1027.3
23 13.09 СЗ 2-3
{4}
н/о н/о +13.1 +7.0 66 +13 +13 тепло 1033.7 1027.7
00 14.09 З 2 н/о н/о +11.9 +7.2 73 +11 +11 по сезону 1034.1 1028.1
01 14.09 З 2-2
{2}
н/о н/о +10.4 +7.3 81 +9 +9 по сезону 1034.1 1028.0
02 14.09 ЮЗ 1-1
{2}
н/о н/о +10.2 +7.7 84 +10 +10 по сезону 1034.0 1027.9
03 14.09 З 2-2
{3}
н/о н/о +10.3 +7.7 84 +9 +9 по сезону 1034.0 1027.9
04 14.09 З 2-2
{3}
н/о н/о +9.4 +7.3 87 +8 +8 по сезону 1034.3 1028.2
05 14.09 СЗ 2-2
{3}
н/о н/о +8.8 +6.9 88 +7 +7 по сезону 1034.7 1028.6
06 14.09 СЗ 2 н/о н/о +10.3 +8.1 86 +9 +9 по сезону 1034.8 1028.7 +8.2 +16.7
07 14.09 СЗ 3-4
{4}
н/о н/о +12.3 +9.1 81 +11 +11 по сезону 1035.0 1029.0
08 14.09 С 1-3
{4}
н/о н/о +13.9 +9.0 72 +14 +14 по сезону 1034.9 1028.9
09 14.09 С 2 н/о н/о +15.7 +7.8 59 +16 +16 тепло 1035.1 1029.1
10 14.09 С 3-5
{5}
н/о н/о +16.6 +6.5 51 +16 +16 по сезону 1034.9 1029.0
11 14.09 СЗ 3-6
{6}
н/о н/о +16.9 +5.6 47 +17 +17 по сезону 1034.3 1028.4
12 14.09 СЗ 2-4
{6}
н/о н/о +18.0 +5.4 43 +19 +19 тепло 1033.5 1027.6
13 14.09 З 3-5
{6}
н/о н/о +18.9 +4.7 39 +19 +19 тепло 1033.1 1027.2
14 14.09 З 3-5
{6}
н/о н/о +18.9 +5.0 40 +19 +19 тепло 1032.3 1026.4
15 14.09 СЗ 2-5
{7}
н/о н/о +19.2 +5.2 40 +20 +20 тепло 1031.9 1026.0
16 14.09 З 3-4
{5}
н/о н/о +18.5 +4.9 41 +19 +19 тепло 1030.9 1025.0
17 14.09 З 2-3
{3}
н/о н/о +17.6 +5.3 44 +18 +18 тепло 1030.5 1024.6
18 14.09 ЮЗ 1 н/о н/о +16.0 +5.1 48 +17 +17 тепло 1030.5 1024.6 +10.2 +19.4
19 14.09 С 1-1
{1}
н/о н/о +12.7 +5.7 62 +13 +13 по сезону 1030.7 1024.7
20 14.09 Ю 2-2
{2}
н/о н/о +13.3 +6.3 63 +13 +13 по сезону 1029.7 1023.7
21 14.09 Ю 1-2
{2}
н/о н/о +11.6 +5.6 67 +12 +12 по сезону 1029.4 1023.4
22 14.09 штиль 0-1
{2}
н/о н/о +10.1 +5.6 74 +10 +10 по сезону 1029.1 1023.1
23 14.09 Ю 1-2
{2}
н/о н/о +11.3 +6.0 70 +11 +11 по сезону 1028.1 1022.1
00 15.09 Ю 2 н/о н/о +10.6 +5.9 73 +9 +9 прохладно 1027.2 1021.2
01 15.09 Ю 2-3
{3}
н/о н/о +10.6 +5.8 72 +9 +9 по сезону 1026.5 1020.5
02 15.09 Ю 2-3
{3}
н/о н/о +10.3 +5.9 74 +9 +9 по сезону 1025.7 1019.7
03 15.09 Ю 3-5
{5}
н/о н/о +10.2 +5.6 73 +8 +8 прохладно 1024.7 1018.7
04 15.09 Ю 2-4
{5}
н/о н/о +10.0 +5.6 74 +9 +9 по сезону 1024.0 1018.0
05 15.09 Ю 2-4
{4}
н/о н/о +10.3 +5.3 71 +9 +9 по сезону 1023.0 1017.0
06 15.09 ЮЗ 3 н/о н/о +10.8 +5.6 70 +9 +9 по сезону 1022.5 1016.5 +9.9 +16.0
07 15.09 ЮЗ 4-7
{7}
н/о н/о +13.4 +6.8 64 +12 +12 по сезону 1021.7 1015.8
08 15.09 З 4-5
{7}
н/о н/о +16.3 +8.0 58 +16 +16 тепло 1021.5 1015.6
09 15.09 З 5 н/о н/о +18.6 +8.1 50 +19 +19 тепло 1020.7 1014.9
10 15.09 З 6-9
{9}
н/о н/о +19.3 +7.2 45 +20 +20 тепло 1020.6 1014.8
11 15.09 З 6-8
{10}
н/о н/о +20.5 +4.6 35 +21 +21 комфорт 1020.0 1014.2
12 15.09 З 6-11
{11}
н/о н/о +21.8 +3.8 31 +22 +22 комфорт 1019.4 1013.7
13 15.09 ЮЗ 5-8
{11}
н/о н/о +22.7 +2.7 27 +22 +22 комфорт 1018.7 1013.0
14 15.09 ЮЗ 7-12
{12}
н/о н/о +23.5 -0.3 21 +22 +22 комфорт 1017.8 1012.1
15 15.09 З 4-8
{13}
н/о н/о +23.5 +1.6 24 +23 +23 комфорт 1017.3 1011.6 0.0
16 15.09 З 6-9
{10}
н/о н/о +23.1 +1.9 25 +23 +23 комфорт 1017.2 1011.5
17 15.09 З 4-7
{10}
н/о н/о +22.0 +3.0 29 +22 +22 комфорт 1017.0 1011.3
18 15.09 З 3 н/о н/о +21.3 +3.9 32 +22 +22 комфорт 1016.9 1011.2 +10.8 +24.3
19 15.09 СЗ 7-12
{12}
н/о н/о +20.0 +11.4 58 +21 +21 комфорт 1017.4 1011.6
20 15.09 СЗ 6-9
{12}
н/о н/о +18.3 +13.4 73 +18 +18 тепло 1018.0 1012.2
21 15.09 СЗ 6-8
{12}
н/о н/о +16.1 +14.5 90 +15 +15 по сезону 1018.3 1012.5 0.0
22 15.09 З 4-6
{11}
н/о н/о +15.2 +13.9 92 +14 +14 тепло 1018.5 1012.6
23 15.09 СЗ 4-6
{7}
н/о н/о +15.0 +12.5 85 +14 +14 тепло 1019.1 1013.2
00 16.09 СЗ 6 н/о н/о +14.4 +10.6 78 +13 +13 по сезону 1019.3 1013.4 0.2
01 16.09 З 4-6
{8}
н/о н/о +14.4 +11.0 80 +13 +13 тепло 1019.3 1013.4
02 16.09 З 4-6
{6}
н/о н/о +14.2 +10.7 79 +13 +13 тепло 1019.2 1013.3
03 16.09 СЗ 5-8
{9}
н/о н/о +13.8 +9.6 76 +12 +12 по сезону 1019.1 1013.2
04 16.09 СЗ 5-7
{9}
н/о н/о +13.4 +9.1 75 +11 +11 тепло 1019.3 1013.4
05 16.09 СЗ 5-7
{9}
н/о н/о +13.3 +8.8 74 +11 +11 тепло 1019.0 1013.1
06 16.09 З 4 н/о н/о +13.4 +8.7 73 +12 +12 по сезону 1019.2 1013.3 +13.1 +21.3 0.2
07 16.09 З 5-7
{7}
н/о н/о +13.8 +9.2 74 +12 +12 по сезону 1019.6 1013.7
08 16.09 З 4-6
{7}
н/о н/о +14.0 +10.4 79 +13 +13 по сезону 1019.4 1013.5
09 16.09 З 4 н/о н/о +14.6 +9.1 70 +13 +13 по сезону 1019.3 1013.4 0.1
10 16.09 З 3-5
{6}
н/о н/о +15.1 +8.9 66 +14 +14 прохладно 1019.1 1013.2
11 16.09 ЮЗ 5-6
{7}
н/о н/о +14.5 +10.1 75 +13 +13 прохладно 1019.0 1013.1
12 16.09 З 5-8
{8}
н/о н/о +15.6 +10.4 71 +14 +14 прохладно 1018.1 1012.2
13 16.09 З 5-8
{8}
н/о н/о +16.1 +10.0 67 +15 +15 по сезону 1017.7 1011.9
14 16.09 З 4-6
{8}
н/о н/о +15.4 +10.3 72 +14 +14 по сезону 1017.4 1011.5
15 16.09 З 4-7
{8}
н/о н/о +15.1 +10.3 73 +14 +14 прохладно 1017.2 1011.3
16 16.09 З 4-6
{7}
н/о н/о +14.9 +10.5 75 +14 +14 по сезону 1017.1 1011.2
17 16.09 З 4-6
{8}
н/о н/о +14.3 +10.3 77 +13 +13 по сезону 1016.9 1011.0
18 16.09 З 3 н/о н/о +13.5 +10.4 82 +12 +12 прохладно 1017.3 1011.4 +13.3 +16.3
19 16.09 З 3-4
{5}
н/о н/о +13.4 +10.7 84 +12 +12 по сезону 1017.4 1011.5
20 16.09 З 3-6
{6}
н/о н/о +13.6 +10.6 82 +12 +12 по сезону 1017.4 1011.5
21 16.09 З 3-5
{6}
н/о н/о +13.1 +10.4 84 +12 +12 по сезону 1017.5 1011.6
22 16.09 З 3-4
{5}
н/о н/о +12.9 +10.2 84 +12 +12 тепло 1017.2 1011.3
23 16.09 З 3-4
{4}
н/о н/о +12.9 +10.1 83 +12 +12 по сезону 1017.1 1011.2
00 17.09 З 3 н/о н/о +12.7 +10.2 85 +11 +11 по сезону 1016.6 1010.7
01 17.09 З 4-6
{6}
н/о н/о +12.6 +9.6 82 +11 +11 тепло 1016.8 1010.9
02 17.09 З 4-6
{6}
н/о н/о +12.5 +9.7 83 +11 +11 по сезону 1016.4 1010.5
03 17.09 З 3-5
{6}
н/о н/о +12.3 +9.2 81 +11 +11 по сезону 1016.0 1010.1 0.0
04 17.09 З 4-6
{6}
н/о н/о +12.0 +9.1 82 +10 +10 тепло 1015.6 1009.7
05 17.09 З 4-6
{7}
н/о н/о +11.9 +8.4 79 +10 +10 по сезону 1015.2 1009.3
06 17.09 З 5 н/о н/о +12.0 +8.6 80 +10 +10 по сезону 1015.0 1009.1 +11.8 +13.6 0.0
07 17.09 З 5-7
{9}
н/о н/о +12.3 +9.0 80 +10 +10 по сезону 1014.9 1009.0
08 17.09 З 6-9
{9}
н/о н/о +13.0 +8.7 75 +11 +11 по сезону 1014.8 1008.9
09 17.09 З 6 н/о н/о +13.9 +7.9 67 +12 +12 по сезону 1014.2 1008.3
10 17.09 З 6-9
{13}
н/о н/о +15.2 +8.0 62 +14 +14 прохладно 1013.6 1007.8
11 17.09 З 7-11
{14}
н/о н/о +14.6 +7.8 64 +13 +13 прохладно 1013.1 1007.3
12 17.09 З 7-10
{14}
н/о н/о +14.3 +9.9 75 +12 +12 холодно 1012.8 1007.0 0.1
13 17.09 З 6-9
{13}
н/о н/о +12.5 +10.5 88 +10 +10 холодно 1012.5 1006.6
14 17.09 З 8-14
{14}
н/о н/о +13.1 +9.3 78 +10 +10 холодно 1012.1 1006.2
15 17.09 З 12-17
{17}
н/о н/о +12.4 +7.3 71 +9 +9 очень
холодно
1012.5 1006.6 0.4
16 17.09 З 10-15
{15}
н/о н/о +12.9 +5.8 62 +10 +10 прохладно 1012.6 1006.7
17 17.09 СЗ 10-15
{15}
н/о н/о +11.2 +5.8 69 +7 +7 очень
холодно
1013.2 1007.3
18 17.09 З 7 н/о н/о +11.5 +6.4 71 +8 +8 холодно 1013.4 1007.5 +10.3 +15.7 0.2
19 17.09 З 8-13
{13}
н/о н/о +10.7 +4.4 65 +7 +7 прохладно 1014.1 1008.2
20 17.09 З 6-10
{12}
н/о н/о +10.3 +5.3 71 +7 +7 холодно 1014.7 1008.8
21 17.09 З 7-10
{13}
н/о н/о +10.0 +5.3 73 +6 +6 холодно 1014.9 1008.9
22 17.09 З 7-10
{11}
н/о н/о +9.9 +5.4 74 +6 +6 по сезону 1015.8 1009.8
23 17.09 З 7-11
{13}
н/о н/о +9.7 +5.1 73 +6 +6 прохладно 1016.6 1010.6
00 18.09 З 6 н/о н/о +9.1 +5.0 75 +5 +5 холодно 1017.4 1011.4
01 18.09 З 6-8
{11}
н/о н/о +8.6 +5.3 80 +5 +5 по сезону 1018.0 1012.0
02 18.09 З 5-7
{9}
н/о н/о +8.3 +5.3 81 +5 +5 прохладно 1018.6 1012.6
03 18.09 З 5-7
{11}
н/о н/о +7.8 +5.3 84 +4 +4 холодно 1019.1 1013.1
04 18.09 З 5-7
{7}
н/о н/о +7.7 +5.5 86 +4 +4 по сезону 1019.6 1013.6
05 18.09 З 5-7
{8}
н/о н/о +7.7 +5.8 88 +4 +4 прохладно 1020.1 1014.1
06 18.09 З 5 н/о н/о +8.3 +6.2 87 +5 +5 холодно 1020.4 1014.4 +7.5 +11.4
07 18.09 З 6-9
{9}
н/о н/о +9.8 +6.8 82 +6 +6 холодно 1020.8 1014.8
08 18.09 З 6-9
{9}
н/о н/о +11.6 +7.0 73 +9 +9 прохладно 1021.5 1015.5
09 18.09 З 7 н/о н/о +12.7 +6.8 67 +10 +10 прохладно 1021.6 1015.7
10 18.09 СЗ 7-11
{12}
н/о н/о +13.6 +5.7 59 +11 +11 холодно 1021.7 1015.8
11 18.09 СЗ 7-11
{12}
н/о н/о +15.0 +5.1 52 +13 +13 прохладно 1021.7 1015.8
12 18.09 СЗ 10-14
{14}
н/о н/о +15.9 +2.4 40 +14 +14 прохладно 1021.8 1015.9
13 18.09 СЗ 8-13
{14}
н/о н/о +15.2 +2.2 41 +13 +13 по сезону 1021.9 1016.0
14 18.09 СЗ 8-10
{12}
н/о н/о +15.3 +2.7 43 +14 +14 по сезону 1021.8 1015.9
15 18.09 СЗ 6-9
{14}
н/о н/о +15.9 +3.0 42 +15 +15 по сезону 1021.6 1015.7
16 18.09 СЗ 4-6
{11}
н/о н/о +14.8 +3.3 46 +14 +14 тепло 1021.6 1015.7

 

Местоположение метеостанции Берлин (Германия): широта 52.47 долгота 13.40 высота над уровнем моря 50 м.

В архиве по умолчанию представлена погода в Берлине за последнюю неделю. Архивные данные за месяц целиком и за предыдущие месяцы, начиная с января 2011 года, Вы можете получить, выбрав интересующий диапазон дат из раскрывающегося списка и нажав кнопку "Ввод!".


*Определитесь, кто Вы:
робот инопланетянин человек

Внимание! Время в таблицах - всемирное. Для получения местного времени необходимо прибавить поправку, которая равна 1 ч.

Смотрите также архив погоды в соседних городах и на ближайших метеорологических станциях:

Погода в Берлин-Далеме (Германия) (7 км)
Погода в Берлин-Тегеле (Германия) (12 км)
Погода в Берлин-Шёнефельде (Германия) (13 км)
Погода в Потсдаме (Германия) (25 км)
Погода в Баруте (Германия) (42 км)
Погода в Линденберге (Германия) (56 км)
Погода в Нойруппине (Германия) (62 км)
Погода в Ангермюнде (Германия) (74 км)
Погода в Визенбурге (Германия) (74 км)
Погода в Маншно (Германия) (78 км)

Пояснения к столбцам:

Ветер - указаны скорость ветра в м/с - средняя за 10 мин, порывы в срок и между сроками (в фигурных скобках) и направление, откуда дует ветер: С - северный, СВ - северо-восточный, В - восточный, ЮВ - юго-восточный, Ю - южный, ЮЗ - юго-западный, З - западный, СЗ - северо-западный.
Видимость - горизонтальная дальность видимости в метрах или километрах. При видимости от 1 до 10 км при отсутствии осадков обычно наблюдается дымка, при ухудшении видимости до 1 км и менее - туман. В сухую погоду видимость может ухудшаться дымом, пылью или мглою.
Явления - указаны атмосферные явления, наблюдавшиеся в срок или в последний час перед сроком; фигурными скобками обозначены явления, наблюдавшиеся между сроками (за 1-3 часа до срока); квадратными скобками обозначены град или гололедные отложения с указанием их диаметра в мм.
Облачность - указаны через наклонную черту общая и нижняя облачность в баллах и высота нижней границы облаков в метрах; квадратными скобками обозначены формы облаков: Ci - перистые, Cs - перисто-слоистые, Cc - перисто-кучевые, Ac - высококучевые, As - высокослоистые, Sc - слоисто-кучевые, Ns - слоисто-дождевые, Cu - кучевые, Cb - кучево-дождевые. Подробнее классификацию облаков см. в Атласе облаков (PDF).
T - Температура воздуха - температура, измеренная на высоте 2 м над землей.
Td - Температура точки росы - температура, при понижении до которой содержащийся в воздухе водяной пар достигнет насыщения.
f - Относительная влажность воздуха - влажноcть воздуха, измеренная на высоте 2 м над землей.
Te - Эффективная температура - температура, которую ощущает одетый по сезону человек в тени. Характеристика душности погоды. При расчете учитывается влияние влажности воздуха и скорости ветра на теплоощущения человека.
Tes - Эффективная температура на солнце - температура, которую ощущает человек, с поправкой на солнечный нагрев. Характеристика знойности погоды. Зависит от высоты солнца над горизонтом, облачности и скорости ветра. Ночью, в пасмурную погоду, а также при ветре 12 м/с и более поправка равна нулю.
P - Атмосферное давление - приведенное к уровню моря атмосферное давление.
Po - Атмосферное давление - измеренное на уровне метеостанции атмосферное давление.
Tmin - Минимальная температура - минимум температуры воздуха на высоте 2 м над землей.
Tmax - Максимальная температура - максимум температуры воздуха на высоте 2 м над землей.
R - Количество осадков - Количество выпавших осадков за период времени, мм. При наведении курсора мыши на число - период времени, за который выпало указанное количество осадков.
R24 - Количество осадков - Количество выпавших осадков за 24 часа, мм.
S - Снежный покров - Высота снежного покрова, см. При наведении курсора мыши на число - состояние снежного покрова и степень покрытия местности в баллах.